Location: Zagreb
(45.8000°N, 16.0000°E)
Time: 20:32:29
(UTC+01:00)

Vanguard 2 - Visible Passes

Search period start: 24 March 2023 00:00
Search period end: 03 April 2023 01:00
Orbit: 553 x 2927 km, 32.9° (Epoch: 24 March)

Date Brightness Start Highest point End Pass type
(mag) Time Alt. Az. Time Alt. Az. Time Alt. Az.
24 Mar 11.7 03:15:28 10° S 03:24:16 16° SE 03:32:20 10° ESE visible
24 Mar 11.1 05:19:56 10° SSW 05:34:09 33° SSE 05:45:05 10° E visible
25 Mar 11.5 03:28:46 10° S 03:40:12 21° SE 03:50:25 10° ESE visible
26 Mar 11.4 04:42:59 10° SSW 04:56:08 27° SSE 05:07:42 10° E visible
27 Mar 11.7 02:56:09 10° SSE 03:02:32 13° SE 03:08:50 10° ESE visible
27 Mar 11.2 04:57:44 10° SSW 05:12:06 32° SSE 05:24:34 10° E visible
28 Mar 11.5 03:11:10 14° SSE 03:18:14 18° SE 03:28:00 10° ESE visible
28 Mar 11.0 05:12:51 10° SW 05:28:06 37° SSE 05:41:10 10° E visible
29 Mar 11.3 03:26:27 17° S 03:33:58 23° SE 03:45:44 10° E visible
29 Mar 10.9 05:28:16 10° SW 05:44:08 42° SSE 05:57:37 10° E visible
30 Mar 11.2 03:41:39 20° S 03:49:44 29° SSE 04:02:50 10° E visible
30 Mar 10.8 05:43:53 10° SW 06:00:12 46° SSE 06:13:56 10° E visible
31 Mar 11.5 01:55:30 14° SE 01:56:21 14° SE 02:03:22 10° ESE visible
31 Mar 11.0 03:56:46 22° SSW 04:05:32 34° SSE 04:19:36 10° E visible
31 Mar 10.8 05:59:41 10° WSW 06:16:17 49° S 06:30:09 10° ESE visible
01 Apr 11.3 02:10:33 19° SE 02:11:51 19° SE 02:22:10 10° E visible
01 Apr 10.9 04:11:48 23° SSW 04:21:24 39° SSE 04:36:08 10° E visible
02 Apr 11.1 02:25:31 24° SSE 02:27:24 24° SE 02:39:45 10° E visible
02 Apr 10.8 04:26:46 23° SSW 04:37:19 44° SSE 04:52:30 10° E visible
